Location: Unspecified
(42.3650°N, 71.1030°W)
Time: 20:19:07
(UTC+00:00)

Explorer 11/Cluster Stage 4 - Pass Details

Date: 26 June 2024
Orbit: 465 x 1215 km, 28.8° (Epoch: 13 July)

Event Time Altitude Azimuth Distance (km) Brightness Sun altitude
Rises 04:02:40 0° 258° (WSW) 4,118 10.3 -23.5°
Reaches altitude 10° 04:06:44 10° 241° (WSW) 3,109 9.4 -23.6°
Enters shadow 04:08:06 13° 232° (SW) 2,846 9.2 -23.7°
Maximum altitude 04:11:26 17° 203° (SSW) 2,506 - -23.8°
Drops below altitude 10° 04:15:51 10° 165° (SSE) 2,882 - -23.9°
Sets 04:19:26 0° 147° (SSE) 3,699 - -24.0°
